| time (UTC) | temp F | wind direction | speed MPH | gust MPH | rain 1hr in | rain 24hr in | rain mn in | humidity % | barometer mb |
| 20260504233053 | 84 | 312 | 10.0 | 19.0 | 0.00 | 0.00 | 0.00 | 27 | 1005.2 |
| 20260504231550 | 84 | 298 | 8.0 | 16.0 | 0.00 | 0.00 | 0.00 | 27 | 1005.2 |
| 20260504230040 | 85 | 252 | 6.0 | 16.0 | 0.00 | 0.00 | 0.00 | 26 | 1005.4 |
| 20260504224548 | 84 | 298 | 4.0 | 11.0 | 0.00 | 0.00 | 0.00 | 27 | 1005.5 |
| 20260504223041 | 85 | 277 | 4.0 | 8.0 | 0.00 | 0.00 | 0.00 | 25 | 1005.6 |
| 20260504221600 | 85 | 91 | 1.0 | 7.0 | 0.00 | 0.00 | 0.00 | 27 | 1005.7 |
| 20260504220127 | 85 | 324 | 3.0 | 9.0 | 0.00 | 0.00 | 0.00 | 25 | 1006.0 |
| 20260504214548 | 85 | 23 | 1.0 | 4.0 | 0.00 | 0.00 | 0.00 | 26 | 1006.1 |
| 20260504213123 | 84 | 190 | 2.0 | 5.0 | 0.00 | 0.00 | 0.00 | 27 | 1006.5 |
| 20260504211550 | 83 | 137 | 4.0 | 8.0 | 0.00 | 0.00 | 0.00 | 28 | 1006.7 |
| 20260504210039 | 84 | 127 | 4.0 | 9.0 | 0.00 | 0.00 | 0.00 | 26 | 1006.9 |
| 20260504204601 | 84 | 94 | 1.0 | 5.0 | 0.00 | 0.00 | 0.00 | 26 | 1007.1 |
| 20260504203038 | 82 | 134 | 2.0 | 5.0 | 0.00 | 0.00 | 0.00 | 29 | 1007.2 |
| 20260504201553 | 81 | 110 | 5.0 | 10.0 | 0.00 | 0.00 | 0.00 | 31 | 1007.3 |
| 20260504200046 | 81 | 101 | 1.0 | 4.0 | 0.00 | 0.00 | 0.00 | 32 | 1007.6 |
| 20260504194554 | 80 | 142 | 2.0 | 5.0 | 0.00 | 0.00 | 0.00 | 36 | 1007.8 |
| 20260504193045 | 78 | 140 | 1.0 | 5.0 | 0.00 | 0.00 | 0.00 | 44 | 1008.0 |
| 20260504191542 | 77 | 121 | 0.0 | 5.0 | 0.00 | 0.00 | 0.00 | 43 | 1008.1 |
| 20260504190052 | 75 | 127 | 0.0 | 7.0 | 0.00 | 0.00 | 0.00 | 45 | 1008.4 |
| 20260504184542 | 74 | 94 | 1.0 | 5.0 | 0.00 | 0.00 | 0.00 | 45 | 1008.6 |
| 20260504183051 | 73 | 140 | 2.0 | 5.0 | 0.00 | 0.00 | 0.00 | 46 | 1008.7 |
| 20260504181544 | 72 | 104 | 1.0 | 4.0 | 0.00 | 0.00 | 0.00 | 48 | 1008.8 |
| 20260504180053 | 71 | 53 | 1.0 | 5.0 | 0.00 | 0.00 | 0.00 | 48 | 1008.8 |
| 20260504174545 | 69 | 107 | 1.0 | 4.0 | 0.00 | 0.00 | 0.00 | 52 | 1008.9 |
| 20260504173057 | 68 | 73 | 2.0 | 5.0 | 0.00 | 0.00 | 0.00 | 53 | 1009.0 |
| 20260504171544 | 67 | 132 | 1.0 | 4.0 | 0.00 | 0.00 | 0.00 | 54 | 1009.0 |
| 20260504081554 | 51 | 327 | 0.0 | 0.0 | 0.00 | 0.00 | 0.00 | 78 | 1009.1 |
| 20260504044542 | 65 | 326 | 0.0 | 0.0 | 0.00 | 0.00 | 0.00 | 56 | 1008.8 |
| 20260504043050 | 66 | 326 | 0.0 | 0.0 | 0.00 | 0.00 | 0.00 | 54 | 1008.5 |
| 20260504041558 | 67 | 326 | 0.0 | 4.0 | 0.00 | 0.00 | 0.00 | 52 | 1008.4 |
| 20260504040145 | 68 | 238 | 0.0 | 2.0 | 0.00 | 0.00 | 0.00 | 51 | 1008.3 |
| 20260504034540 | 70 | 238 | 0.0 | 2.0 | 0.00 | 0.00 | 0.00 | 50 | 1008.2 |
| 20260504033050 | 72 | 163 | 1.0 | 3.0 | 0.00 | 0.00 | 0.00 | 46 | 1008.0 |
| 20260504031541 | 74 | 167 | 0.0 | 3.0 | 0.00 | 0.00 | 0.00 | 42 | 1007.8 |
| 20260504030049 | 75 | 163 | 0.0 | 2.0 | 0.00 | 0.00 | 0.00 | 39 | 1007.7 |
| 20260504024517 | 77 | 137 | 0.0 | 0.0 | 0.00 | 0.00 | 0.00 | 37 | 1007.6 |
| 20260504023056 | 79 | 137 | 0.0 | 0.0 | 0.00 | 0.00 | 0.00 | 33 | 1007.5 |
| 20260504021547 | 80 | 137 | 0.0 | 1.0 | 0.00 | 0.00 | 0.00 | 33 | 1007.4 |
| 20260504020132 | 81 | 137 | 0.0 | 2.0 | 0.00 | 0.00 | 0.00 | 30 | 1007.5 |
| 20260504014600 | 81 | 137 | 1.0 | 3.0 | 0.00 | 0.00 | 0.00 | 28 | 1007.6 |
| 20260504013050 | 82 | 108 | 1.0 | 4.0 | 0.00 | 0.00 | 0.00 | 27 | 1007.7 |
| 20260504011558 | 82 | 117 | 1.0 | 4.0 | 0.00 | 0.00 | 0.00 | 30 | 1007.6 |
| 20260504010048 | 83 | 113 | 2.0 | 4.0 | 0.00 | 0.00 | 0.00 | 28 | 1007.9 |
| 20260504004555 | 83 | 132 | 1.0 | 4.0 | 0.00 | 0.00 | 0.00 | 26 | 1008.1 |
| 20260504003050 | 83 | 59 | 1.0 | 6.0 | 0.00 | 0.00 | 0.00 | 28 | 1008.3 |
| 20260504001621 | 83 | 103 | 2.0 | 8.0 | 0.00 | 0.00 | 0.00 | 25 | 1008.5 |
| 20260504000046 | 83 | 126 | 2.0 | 6.0 | 0.00 | 0.00 | 0.00 | 24 | 1008.6 |
| 20260503234605 | 83 | 135 | 1.0 | 8.0 | 0.00 | 0.00 | 0.00 | 26 | 1008.9 |